Regional Weather Roundup
Issued by NWS

Home | Current Version | Previous Version | Text Only | Print | Product List | Glossary Off
Versions: 1 2 3 4 5 6 7 8 9 10 11 12 13 14 15 16 17 18 19 20 21 22 23 24 25 26 27 28 29 30 31 32 33 34 35 36 37 38 39 40 41 42 43 44 45 46 47 48 49 50

786
ASUS45 KCYS 061210
RWRWY

WYOMING REGIONAL WEATHER ROUNDUP
NATIONAL WEATHER SERVICE CHEYENNE WY
500 AM MST TUE DEC 06 2016

NOTE:  "FAIR" INDICATES FEW OR NO CLOUDS BELOW 12,000 FEET
WITH NO SIGNIFICANT WEATHER AND/OR OBSTRUCTIONS TO VISIBILITY.

WYZ001-061300-
YELLOWSTONE NATIONAL PARK

CITY           SKY/WX    TMP DP  RH WIND       PRES   REMARKS
LK YELLOWSTONE   N/A     -5  -8  87 NW3       29.79F
6HR MIN TEMP:  -5; 6HR MAX TEMP:   4;

W YELLOWSTONE  NOT AVBL

$$
WYZ002>013-054>058-071-098>099-061300-
NORTHERN WYOMING

CITY           SKY/WX    TMP DP  RH WIND       PRES   REMARKS
JACKSON        FAIR     -18 -20  91 N6        29.90S WCI -33
CODY           FAIR       0  -2  91 S3        29.92F
GREYBULL       FAIR       6   1  80 W6        29.98F WCI  -4
6HR MIN TEMP:   6; 6HR MAX TEMP:  12;

WORLAND        FAIR       2  -3  80 N3        29.96S
6HR MIN TEMP:   1; 6HR MAX TEMP:  11;

SHERIDAN       LGT SNOW   9   5  84 NW3       30.01R FOG
6HR MIN TEMP:   2; 6HR MAX TEMP:  12; 6HR PCP:  0.03;

BUFFALO        LGT SNOW   5   0  79 NW8       29.92S WCI  -8
6HR MIN TEMP:   3; 6HR MAX TEMP:   8; 6HR PCP: TRACE;

GILLETTE       FAIR      -6  -8  91 W8        29.96S WCI -21
6HR MIN TEMP:  -6; 6HR MAX TEMP:   6;

HULETT         CLOUDY     5   1  85 MISG      29.96S
NEWCASTLE      FAIR       5   0  78 N13       29.95S WCI -12

$$
WYZ014>020-022>026-101>103-061300-
CENTRAL WYOMING

CITY           SKY/WX    TMP DP  RH WIND       PRES   REMARKS
BIG PINEY      FAIR     -18 -23  77 CALM      29.88F
6HR MIN TEMP: -19; 6HR MAX TEMP:  -9;

PINEDALE       FAIR     -18 -26  69 W9        29.88F WCI -38
DUBOIS         FAIR      -6 -15  65 MISG      29.79S
LANDER         FAIR       5 -11  47 NW6       29.88S WCI  -6
6HR MIN TEMP:   2; 6HR MAX TEMP:  10; 6HR PCP: TRACE;

RIVERTON       FAIR       4  -8  57 CALM      29.89F
6HR MIN TEMP:   1; 6HR MAX TEMP:   9;

CASPER         FAIR      -2  -8  76 W14       29.90S WCI -21
6HR MIN TEMP:  -6; 6HR MAX TEMP:   7;

DOUGLAS        FAIR      -5 -10  79 N3        29.92F
6HR MIN TEMP:  -6; 6HR MAX TEMP:   8;


$$
WYZ021-027>030-104>119-061300-
SOUTHERN WYOMING

CITY           SKY/WX    TMP DP  RH WIND       PRES   REMARKS
EVANSTON       FAIR       7 -16  34 E5        29.82F WCI  -2
6HR MIN TEMP:  -2; 6HR MAX TEMP:   7;

KEMMERER         N/A     -9 -17  70 N12       29.83F WCI -29
FORT BRIDGER   FAIR      -2 -14  55 CALM      29.87F
ROCK SPRINGS   FAIR       2  -8  63 CALM      29.87F
6HR MIN TEMP:  -2; 6HR MAX TEMP:   5;

DIXON          FAIR      -2 -11  66 E7        29.94F WCI -16
RAWLINS        FAIR       2 -10  57 W3        29.86S
6HR MIN TEMP:   1; 6HR MAX TEMP:   6;

SARATOGA       FAIR       0  -9  65 S9        29.87F WCI -16
LARAMIE        FAIR      -4 -13  65 S9        29.83F WCI -20
6HR MIN TEMP:  -6; 6HR MAX TEMP:   6;

CHEYENNE       FAIR       7 -11  43 W16       29.86S WCI -11
6HR MIN TEMP:   7; 6HR MAX TEMP:  12;

TORRINGTON     FAIR       5   2  87 SE5       29.95  WCI  -4
6HR MIN TEMP:   2; 6HR MAX TEMP:  15;

PINE BLUFFS    FAIR       3  -6  66 MISG      29.94S

$$




USA.gov is the U.S. government's official web portal to all federal, state and local government web resources and services.